Location: Bad Salzschlirf
(50.3750°N, 9.3000°E)
Time: 21:58:08
(UTC+01:00)

ISS - Pass Details

Date: 10 November 2019
Orbit: 412 x 421 km, 51.6° (Epoch: 15 November)

Event Time Altitude Azimuth Distance (km) Brightness Sun altitude
Exits shadow 06:33:35 - 256° (WSW) 1,562 -1.4 -8.9°
Reaches altitude 10° 06:33:51 10° 252° (WSW) 1,503 -1.4 -8.9°
Maximum altitude 06:35:30 13° 223° (SW) 1,325 -1.5 -8.6°
Drops below altitude 10° 06:37:09 10° 193° (SSW) 1,497 -0.9 -8.3°
Sets 06:40:05 0° 165° (SSE) 2,353 0.5 -7.9°
